timestamp,wind_dir_avg,wind_spd_max_dir,wind_spd_avg,wind_spd_gust,battery_voltage,lat,long
2017-11-01 00:00:00+00:00,225.0,223.0,9.17,9.84,12.7,47.59359,-54.27349
2017-11-01 00:10:00+00:00,226.0,223.0,9.44,10.63,12.6,47.59359,-54.27349
2017-11-01 00:20:00+00:00,229.0,228.0,9.54,10.78,12.7,47.59359,-54.27349
2017-11-01 00:30:00+00:00,230.0,231.0,9.55,12.0,12.7,47.59359,-54.27349
2017-11-01 00:40:00+00:00,229.0,232.0,9.35,10.99,12.7,47.59359,-54.27349
2017-11-01 00:50:00+00:00,230.0,235.0,10.16,12.01,12.7,47.59359,-54.27349
2017-11-01 01:00:00+00:00,228.0,228.0,10.24,11.92,12.7,47.59359,-54.27349
2017-11-01 01:10:00+00:00,230.0,231.0,10.38,11.97,12.6,47.59359,-54.27349
2017-11-01 01:20:00+00:00,230.0,233.0,10.51,12.2,12.7,47.59359,-54.27349
2017-11-01 01:30:00+00:00,226.0,236.0,9.76,11.73,12.7,47.59359,-54.27349
2017-11-01 01:40:00+00:00,228.0,231.0,9.6,10.84,12.7,47.59359,-54.27349
2017-11-01 01:50:00+00:00,229.0,231.0,8.58,9.37,12.7,47.59359,-54.27349
2017-11-01 02:00:00+00:00,222.0,218.0,8.23,9.5,12.6,47.59359,-54.27349
2017-11-01 02:10:00+00:00,226.0,225.0,9.2,10.24,12.6,47.59359,-54.27349
2017-11-01 02:20:00+00:00,221.0,223.0,9.9,11.06,12.7,47.59359,-54.27349
2017-11-01 02:30:00+00:00,226.0,227.0,11.16,13.2,12.7,47.59359,-54.27349
2017-11-01 02:40:00+00:00,227.0,230.0,10.1,11.24,12.7,47.59359,-54.27349
2017-11-01 02:50:00+00:00,227.0,228.0,10.97,12.3,12.7,47.59359,-54.27349
2017-11-01 03:00:00+00:00,226.0,226.0,10.58,12.27,12.6,47.59359,-54.27349
2017-11-01 03:10:00+00:00,228.0,226.0,10.62,12.02,12.6,47.59359,-54.27349
2017-11-01 03:20:00+00:00,228.0,230.0,10.12,11.23,12.7,47.59359,-54.27349
2017-11-01 03:30:00+00:00,224.0,224.0,9.77,10.8,12.7,47.59359,-54.27349
2017-11-01 03:40:00+00:00,227.0,229.0,9.93,10.91,12.7,47.59359,-54.27349
2017-11-01 03:50:00+00:00,227.0,229.0,9.0,10.22,12.7,47.59359,-54.27349
2017-11-01 04:00:00+00:00,227.0,224.0,9.47,10.79,12.6,47.59359,-54.27349
2017-11-01 04:10:00+00:00,228.0,229.0,9.22,9.88,12.6,47.59359,-54.27349
2017-11-01 04:20:00+00:00,226.0,229.0,9.68,11.25,12.7,47.59359,-54.27349
2017-11-01 04:30:00+00:00,225.0,216.0,10.91,12.15,12.7,47.59359,-54.27349
2017-11-01 04:40:00+00:00,225.0,227.0,10.8,12.26,12.7,47.59359,-54.27349
2017-11-01 04:50:00+00:00,226.0,228.0,10.17,11.3,12.7,47.59359,-54.27349
2017-11-01 05:00:00+00:00,223.0,223.0,10.47,11.88,12.6,47.59359,-54.27349
2017-11-01 05:10:00+00:00,223.0,230.0,9.84,10.65,12.6,47.59359,-54.27349
2017-11-01 05:20:00+00:00,225.0,223.0,10.64,12.45,12.6,47.59359,-54.27349
2017-11-01 05:30:00+00:00,228.0,237.0,10.24,12.71,12.6,47.59359,-54.27349
2017-11-01 05:40:00+00:00,227.0,224.0,9.09,11.41,12.7,47.59359,-54.27349
2017-11-01 05:50:00+00:00,229.0,235.0,9.52,10.9,12.7,47.59359,-54.27349
2017-11-01 06:00:00+00:00,231.0,231.0,9.89,11.09,12.6,47.59359,-54.27349
2017-11-01 06:10:00+00:00,229.0,238.0,8.33,9.96,12.6,47.59359,-54.27349
2017-11-01 06:20:00+00:00,230.0,231.0,10.07,11.05,12.6,47.59359,-54.27349
2017-11-01 06:30:00+00:00,230.0,229.0,10.03,11.33,12.6,47.59359,-54.27349
2017-11-01 06:40:00+00:00,230.0,238.0,9.87,12.49,12.6,47.59359,-54.27349
2017-11-01 06:50:00+00:00,229.0,228.0,10.1,11.57,12.6,47.59359,-54.27349
2017-11-01 07:00:00+00:00,234.0,240.0,7.98,9.37,12.6,47.59359,-54.27349
2017-11-01 07:10:00+00:00,233.0,239.0,8.21,10.46,12.6,47.59359,-54.27349
2017-11-01 07:20:00+00:00,242.0,240.0,8.66,10.09,12.6,47.59359,-54.27349
2017-11-01 07:30:00+00:00,241.0,243.0,8.77,10.43,12.6,47.59359,-54.27349
2017-11-01 07:40:00+00:00,241.0,244.0,9.25,10.52,12.6,47.59359,-54.27349
2017-11-01 07:50:00+00:00,242.0,240.0,7.83,9.0,12.6,47.59359,-54.27349
2017-11-01 08:00:00+00:00,245.0,254.0,8.59,10.23,12.6,47.59359,-54.27349
2017-11-01 08:10:00+00:00,254.0,256.0,7.8,9.98,12.6,47.59359,-54.27349
2017-11-01 08:20:00+00:00,248.0,247.0,7.24,8.44,12.6,47.59359,-54.27349
2017-11-01 08:30:00+00:00,252.0,256.0,7.96,8.98,12.6,47.59359,-54.27349
2017-11-01 08:40:00+00:00,254.0,256.0,8.38,9.37,12.6,47.59359,-54.27349
2017-11-01 08:50:00+00:00,255.0,258.0,7.92,9.57,12.6,47.59359,-54.27349
2017-11-01 09:00:00+00:00,246.0,247.0,6.75,9.77,12.6,47.59359,-54.27349
2017-11-01 09:10:00+00:00,241.0,234.0,7.56,8.5,12.6,47.59359,-54.27349
2017-11-01 09:20:00+00:00,249.0,249.0,7.27,10.66,12.6,47.59359,-54.27349
2017-11-01 09:30:00+00:00,245.0,242.0,6.57,7.46,12.6,47.59359,-54.27349
2017-11-01 09:40:00+00:00,253.0,253.0,7.98,8.93,12.6,47.59359,-54.27349
2017-11-01 09:50:00+00:00,255.0,251.0,8.11,9.99,12.6,47.59359,-54.27349
2017-11-01 10:00:00+00:00,259.0,257.0,8.38,9.63,12.6,47.59359,-54.27349
2017-11-01 10:10:00+00:00,256.0,257.0,6.99,8.67,12.5,47.59359,-54.27349
2017-11-01 10:20:00+00:00,258.0,264.0,7.08,8.28,12.6,47.59359,-54.27349
2017-11-01 10:30:00+00:00,261.0,261.0,6.94,7.98,12.6,47.59359,-54.27349
2017-11-01 10:40:00+00:00,258.0,252.0,8.17,9.33,12.8,47.59359,-54.27349
2017-11-01 10:50:00+00:00,255.0,250.0,7.06,8.6,13.4,47.59359,-54.27349
2017-11-01 11:00:00+00:00,261.0,263.0,6.84,8.01,14.1,47.59359,-54.27349
2017-11-01 11:10:00+00:00,264.0,265.0,7.22,8.36,13.7,47.59359,-54.27349
2017-11-01 11:20:00+00:00,260.0,263.0,6.34,8.69,13.8,47.59359,-54.27349
2017-11-01 11:30:00+00:00,251.0,256.0,6.59,7.78,13.8,47.59359,-54.27349
2017-11-01 11:40:00+00:00,252.0,247.0,6.68,7.55,13.8,47.59359,-54.27349
2017-11-01 11:50:00+00:00,252.0,250.0,6.17,7.1,13.8,47.59359,-54.27349
2017-11-01 12:00:00+00:00,262.0,262.0,6.6,7.68,14.2,47.59359,-54.27349
2017-11-01 12:10:00+00:00,267.0,269.0,5.19,6.17,13.9,47.59359,-54.27349
2017-11-01 12:20:00+00:00,267.0,263.0,6.15,7.0,14.0,47.59359,-54.27349
2017-11-01 12:30:00+00:00,278.0,279.0,7.11,8.12,13.9,47.59359,-54.27349
2017-11-01 12:40:00+00:00,269.0,269.0,6.02,7.0,14.2,47.59359,-54.27349
2017-11-01 12:50:00+00:00,277.0,274.0,6.3,7.01,14.0,47.59359,-54.27349
2017-11-01 13:00:00+00:00,270.0,261.0,6.63,8.29,14.0,47.59359,-54.27349
2017-11-01 13:10:00+00:00,277.0,274.0,6.76,8.0,14.0,47.59359,-54.27349
2017-11-01 13:20:00+00:00,277.0,284.0,7.11,8.11,13.9,47.59359,-54.27349
2017-11-01 13:30:00+00:00,262.0,263.0,5.6,7.26,14.0,47.59359,-54.27349
2017-11-01 13:40:00+00:00,266.0,265.0,6.6,7.67,14.0,47.59359,-54.27349
2017-11-01 13:50:00+00:00,265.0,269.0,8.13,8.86,14.0,47.59359,-54.27349
2017-11-01 14:00:00+00:00,268.0,272.0,7.67,10.3,14.0,47.59359,-54.27349
2017-11-01 14:10:00+00:00,265.0,270.0,8.15,9.49,14.0,47.59359,-54.27349
2017-11-01 14:20:00+00:00,266.0,265.0,9.53,10.29,14.0,47.59359,-54.27349
2017-11-01 14:30:00+00:00,264.0,266.0,9.59,11.4,14.0,47.59359,-54.27349
2017-11-01 14:40:00+00:00,264.0,264.0,9.18,11.15,14.0,47.59359,-54.27349
2017-11-01 14:50:00+00:00,267.0,263.0,9.53,12.28,14.0,47.59359,-54.27349
2017-11-01 15:00:00+00:00,266.0,270.0,10.02,10.91,14.0,47.59359,-54.27349
2017-11-01 15:10:00+00:00,263.0,264.0,9.84,11.47,14.0,47.59359,-54.27349
2017-11-01 15:20:00+00:00,262.0,263.0,7.93,9.02,14.0,47.59359,-54.27349
2017-11-01 15:30:00+00:00,264.0,260.0,9.87,11.17,14.0,47.59359,-54.27349
2017-11-01 15:40:00+00:00,266.0,267.0,9.09,9.82,14.0,47.59359,-54.27349
2017-11-01 15:50:00+00:00,260.0,263.0,8.64,9.52,13.6,47.59359,-54.27349
2017-11-01 16:00:00+00:00,265.0,267.0,8.56,10.05,13.9,47.59359,-54.27349
2017-11-01 16:10:00+00:00,273.0,268.0,10.41,11.92,13.9,47.59359,-54.27349
2017-11-01 16:20:00+00:00,271.0,279.0,6.85,8.24,14.0,47.59359,-54.27349
2017-11-01 16:30:00+00:00,274.0,276.0,7.25,8.38,13.9,47.59359,-54.27349
2017-11-01 16:40:00+00:00,273.0,268.0,7.36,8.51,13.9,47.59359,-54.27349
2017-11-01 16:50:00+00:00,274.0,277.0,8.07,9.47,13.8,47.59359,-54.27349
2017-11-01 17:00:00+00:00,268.0,270.0,8.21,9.1,13.8,47.59359,-54.27349
2017-11-01 17:20:00+00:00,264.0,265.0,8.49,9.35,,47.59359,-54.27349
2017-11-01 17:30:00+00:00,268.0,266.0,8.55,9.42,,47.59359,-54.27349
2017-11-01 17:40:00+00:00,267.0,268.0,8.21,9.19,,47.59359,-54.27349
2017-11-01 17:50:00+00:00,264.0,261.0,9.18,10.01,,47.59359,-54.27349
2017-11-01 18:00:00+00:00,272.0,273.0,8.93,10.31,,47.59359,-54.27349
2017-11-01 18:10:00+00:00,280.0,279.0,7.51,8.34,,47.59359,-54.27349
2017-11-01 18:20:00+00:00,290.0,315.0,7.35,8.48,,47.59359,-54.27349
2017-11-01 18:30:00+00:00,279.0,281.0,6.59,7.06,,47.59359,-54.27349
2017-11-01 18:40:00+00:00,264.0,264.0,7.31,8.23,,47.59359,-54.27349
2017-11-01 18:50:00+00:00,264.0,268.0,9.74,10.86,,47.59359,-54.27349
2017-11-01 19:00:00+00:00,269.0,273.0,8.35,8.88,,47.59359,-54.27349
2017-11-01 19:10:00+00:00,257.0,261.0,7.28,8.87,,47.59359,-54.27349
2017-11-01 19:20:00+00:00,259.0,260.0,8.68,9.95,,47.59359,-54.27349
2017-11-01 19:30:00+00:00,265.0,269.0,7.94,9.06,,47.59359,-54.27349
2017-11-01 19:40:00+00:00,268.0,271.0,8.32,9.14,,47.59359,-54.27349
2017-11-01 19:50:00+00:00,264.0,262.0,7.97,8.61,,47.59359,-54.27349
2017-11-01 20:00:00+00:00,262.0,265.0,9.3,10.15,,47.59359,-54.27349
2017-11-01 20:10:00+00:00,262.0,260.0,9.17,10.42,,47.59359,-54.27349
2017-11-01 20:20:00+00:00,265.0,265.0,7.76,9.19,,47.59359,-54.27349
2017-11-01 20:30:00+00:00,268.0,269.0,7.83,8.78,,47.59359,-54.27349
2017-11-01 20:40:00+00:00,266.0,270.0,6.71,7.41,,47.59359,-54.27349
2017-11-01 20:50:00+00:00,269.0,271.0,6.54,7.41,,47.59359,-54.27349
2017-11-01 21:00:00+00:00,273.0,274.0,7.49,8.7,,47.59359,-54.27349
2017-11-01 21:10:00+00:00,278.0,278.0,7.05,7.69,,47.59359,-54.27349
2017-11-01 21:20:00+00:00,274.0,275.0,6.53,7.44,,47.59359,-54.27349
2017-11-01 21:30:00+00:00,277.0,273.0,6.58,7.69,,47.59359,-54.27349
2017-11-01 21:40:00+00:00,271.0,270.0,6.57,7.73,,47.59359,-54.27349
2017-11-01 21:50:00+00:00,274.0,272.0,6.45,8.25,,47.59359,-54.27349
2017-11-01 22:00:00+00:00,275.0,273.0,8.7,9.56,,47.59359,-54.27349
2017-11-01 22:10:00+00:00,273.0,279.0,7.58,8.77,,47.59359,-54.27349
2017-11-01 22:20:00+00:00,274.0,277.0,7.44,8.96,,47.59359,-54.27349
2017-11-01 22:30:00+00:00,280.0,284.0,8.24,9.59,,47.59359,-54.27349
2017-11-01 22:40:00+00:00,272.0,281.0,7.01,8.41,,47.59359,-54.27349
2017-11-01 22:50:00+00:00,263.0,259.0,6.85,7.64,,47.59359,-54.27349
2017-11-01 23:00:00+00:00,261.0,264.0,5.71,6.37,,47.59359,-54.27349
2017-11-01 23:10:00+00:00,263.0,264.0,5.85,6.48,,47.59359,-54.27349
2017-11-01 23:20:00+00:00,267.0,270.0,5.82,6.53,,47.59359,-54.27349
2017-11-01 23:30:00+00:00,266.0,263.0,6.6,7.42,,47.59359,-54.27349
2017-11-01 23:40:00+00:00,267.0,264.0,6.42,7.62,,47.59359,-54.27349
2017-11-01 23:50:00+00:00,266.0,270.0,6.74,7.83,,47.59359,-54.27349
